Bard

operational
NORAD ID: 64874 Int'l Des: 2025-154 Owner: APL/NASA Country: US
LEOCIRCULARRETROGRADESSO

Über Bard

Beschreibung wird geladen...

Live-Position

3D-Globus wird geladen...

Nächste Überflüge

Höhenverlauf

Altitude vs Time

uPlot chart will show altitude changes over time

Zweizeiliger Elementsatz

1 64874U 25154F 25341.11079357 .00006620 00000-0 32049-3 0 9999
2 64874 97.4235 44.6515 0001817 206.8539 153.2601 15.18895696 20677
Epoch: 7. Dez. 2025 • Age: 19 hours

Aktueller Status

Höhe 517.0 km
Geschwindigkeit 7.60 km/s
Subsatellitenpunkt -17.46°S, 7.53°E
Startdatum 23. Juli 2025
Alter 0.3 years
Typ other

Technische Details

Klassifizierung Payload
Masse 140.00 kg
Trockenmasse 140.00 kg
Gesamtmasse 140.00 kg
Länge 1.00 m
Durchmesser 0.60 m
Spannweite 2.00 m
Form Box +4 pan
Hersteller YORKSS
Bus-Typ S-Class
Phasenstatus In Orbit
Besitzer/Staat APL/NASA/US

Große Konstellationen

Loading constellations...